COSMOS 970 DEB

Satellite information

Favourite Embed

Satellite Type and Status

DEBRISIN ORBIT

Key statistics

Satellite COSMOS 970 DEB at a glance.

Uptime

17365

Days in orbit

Revolutions

≈ 13.8

Per day

Orbit

LEO

Low Earth Orbit

Inclination

65.0

Latest

Satellite identification and parameters

Extended collection of information and parameters for COSMOS 970 DEB.

Object identification

Identified? True

Debris? True

Object name: COSMOS 970 DEB

International designator: 1977-121P

Object number (NORAD): 10572

Object ID (CCSDS): 10572

Country: COMMONWEALTH OF INDEPENDENT STATES (CIS)

Current information (Y/N): Y

RCS size: MEDIUM

Orbital parameters

Period: 104.396 minutes

Inclination: 65.034 deg

SMA: 7344.279 km

Apoapsis: 1086.578 km

Periapsis: 845.711 km

RAAN: 276.6183 deg

Eccentricy: 0.0163983

Argument of periapsis: 94.5831 deg

Mean anomaly: 267.3979 deg

Mean motion: 13.79364306 rev/day

Mean motion (dot): 0.00000036 rev/day2

B* drag term: 0.00010812 1/REarth

Two-line elements (TLE)

Creation date: July 5, 2025, 5:45 p.m.

Reference frame: TEME

Reference center: EARTH

Epoch: July 5, 2025, 2:55 p.m. UTC

TLE line 0: 0 COSMOS 970 DEB

TLE line 1: 1 10572U 77121P 25186.62220725 .00000036 00000-0 10812-3 0 9995

TLE line 2: 2 10572 65.0340 276.6183 0163983 94.5831 267.3979 13.79364306387674

Live tracking on map

Real-time ground track for satellite COSMOS 970 DEB.

In-orbit conjunctions

A list of the most updated potential collisions computed for object COSMOS 970 DEB.

Target Orbit TCA Probability of collision Miss distance Type
FENGYUN 1C DEB SSO 2025-05-06 21:28:17 0.0005099916 55.0 (m) DEBRIS
METEOR 1-19 LEO 2025-02-10 17:00:47 0.0001244622 459.0 (m) PAYLOAD

Associated space launch

Second generation ASAT satellite

COSMOS 970 DEB was lifted into orbit during the mission ‘Tsiklon-2 | IS-A 8’, on board a Tsiklon-2 space rocket.

The launch took place on Dec. 21, 1977, 10:35 a.m. from 90.

For more information about the launch, click the button.

Launch to space Tsiklon-2 | IS-A 8
Tsiklon-2 | IS-A 8

Agency: N/A

Status: Launch Successful

Launch date: Dec. 21, 1977, 10:35 a.m. UTC

Rocket: Tsiklon-2

Launch pad: 90

Location: Baikonur Cosmodrome, Republic of Kazakhstan

...

Latest news about this satellite

There are no fresh news available about this satellite. Check back as we update our databases every day.


Newsletter sign-up

Weekly statistics, charts and insights to help you stay on top of the space industry.